TimeAKST,TemperatureF,Dew PointF,Humidity,Sea Level PressureIn,VisibilityMPH,Wind Direction,Wind SpeedMPH,Gust SpeedMPH,PrecipitationIn,Events,Conditions,WindDirDegrees,DateUTC
12:16 AM,39.2,30.2,70,29.89,10.0,ENE,8.1,-,N/A,,Overcast,60,2013-01-05 09:16:00
12:36 AM,39.2,30.2,70,29.88,10.0,ENE,8.1,-,N/A,,Overcast,70,2013-01-05 09:36:00
12:56 AM,39.2,30.2,70,29.87,10.0,East,5.8,-,N/A,,Overcast,80,2013-01-05 09:56:00
1:16 AM,41.0,30.2,65,29.87,10.0,East,5.8,-,N/A,,Overcast,100,2013-01-05 10:16:00
1:36 AM,42.8,30.2,61,29.87,10.0,ESE,10.4,-,N/A,,Overcast,110,2013-01-05 10:36:00
1:56 AM,41.0,30.2,65,29.86,10.0,ESE,8.1,17.3,N/A,,Overcast,110,2013-01-05 10:56:00
2:16 AM,39.2,32.0,75,29.86,10.0,ESE,6.9,-,0.01,,Overcast,120,2013-01-05 11:16:00
2:56 AM,39.2,33.8,81,29.85,10.0,ESE,6.9,16.1,0.03,,Overcast,110,2013-01-05 11:56:00
3:16 AM,39.2,33.8,81,29.84,10.0,ESE,8.1,-,0.01,,Overcast,110,2013-01-05 12:16:00
3:36 AM,39.2,33.8,81,29.83,10.0,ESE,8.1,-,0.01,,Overcast,110,2013-01-05 12:36:00
3:56 AM,39.2,33.8,81,29.83,10.0,ESE,12.7,19.6,0.01,,Overcast,110,2013-01-05 12:56:00
4:16 AM,39.2,33.8,81,29.82,10.0,ESE,11.5,-,0.01,,Overcast,120,2013-01-05 13:16:00
4:36 AM,39.2,33.8,81,29.81,10.0,ESE,11.5,-,0.01,,Overcast,110,2013-01-05 13:36:00
4:56 AM,39.2,33.8,81,29.80,10.0,East,11.5,17.3,0.01,,Overcast,100,2013-01-05 13:56:00
5:16 AM,39.2,33.8,81,29.79,10.0,East,6.9,-,N/A,,Overcast,100,2013-01-05 14:16:00
5:36 AM,39.2,33.8,81,29.78,10.0,East,6.9,-,N/A,,Overcast,100,2013-01-05 14:36:00
5:56 AM,39.2,33.8,81,29.78,10.0,East,3.5,-,N/A,,Mostly Cloudy,90,2013-01-05 14:56:00
6:16 AM,37.4,33.8,87,29.77,10.0,ENE,8.1,-,N/A,,Overcast,60,2013-01-05 15:16:00
6:56 AM,37.4,33.8,87,29.76,10.0,ENE,8.1,-,N/A,,Overcast,60,2013-01-05 15:56:00
7:16 AM,37.4,33.8,87,29.76,10.0,ENE,5.8,-,0.01,,Overcast,60,2013-01-05 16:16:00
7:56 AM,39.2,33.8,81,29.75,10.0,ESE,5.8,-,0.04,,Overcast,110,2013-01-05 16:56:00
8:16 AM,39.2,33.8,81,29.74,10.0,Calm,Calm,-,0.01,,Overcast,0,2013-01-05 17:16:00
8:36 AM,39.2,33.8,81,29.74,10.0,ESE,3.5,-,0.01,,Overcast,110,2013-01-05 17:36:00
8:56 AM,39.2,33.8,81,29.73,10.0,ESE,4.6,-,0.02,,Overcast,110,2013-01-05 17:56:00
9:16 AM,39.2,35.6,87,29.72,10.0,East,5.8,-,0.01,,Overcast,100,2013-01-05 18:16:00
9:36 AM,39.2,35.6,87,29.72,8.0,ESE,4.6,-,0.02,,Overcast,110,2013-01-05 18:36:00
9:56 AM,39.2,35.6,87,29.71,9.0,East,4.6,-,0.03,,Overcast,90,2013-01-05 18:56:00
10:16 AM,39.2,33.8,81,29.71,10.0,ESE,4.6,-,N/A,,Overcast,110,2013-01-05 19:16:00
10:36 AM,39.2,35.6,87,29.70,9.0,Calm,Calm,-,0.01,,Overcast,0,2013-01-05 19:36:00
10:56 AM,39.2,35.6,87,29.70,10.0,East,4.6,-,0.02,,Overcast,100,2013-01-05 19:56:00
11:16 AM,39.2,35.6,87,29.68,10.0,East,3.5,-,N/A,,Overcast,100,2013-01-05 20:16:00
11:36 AM,39.2,35.6,87,29.68,10.0,Calm,Calm,-,N/A,,Overcast,0,2013-01-05 20:36:00
11:56 AM,39.2,35.6,87,29.68,9.0,Calm,Calm,-,N/A,,Overcast,0,2013-01-05 20:56:00
12:16 PM,39.2,35.6,87,29.67,10.0,Calm,Calm,-,0.01,,Overcast,0,2013-01-05 21:16:00
12:36 PM,39.2,35.6,87,29.66,10.0,Calm,Calm,-,0.01,,Overcast,0,2013-01-05 21:36:00
12:56 PM,37.4,35.6,93,29.66,10.0,Calm,Calm,-,0.02,,Overcast,0,2013-01-05 21:56:00
1:16 PM,39.2,35.6,87,29.66,9.0,Calm,Calm,-,N/A,,Overcast,0,2013-01-05 22:16:00
1:56 PM,37.4,35.6,93,29.66,8.0,Calm,Calm,-,0.02,,Overcast,0,2013-01-05 22:56:00
2:16 PM,37.4,35.6,93,29.67,5.0,Calm,Calm,-,0.03,,Overcast,0,2013-01-05 23:16:00
2:36 PM,37.4,35.6,93,29.68,7.0,Calm,Calm,-,0.04,,Overcast,0,2013-01-05 23:36:00
2:56 PM,37.4,35.6,93,29.69,5.0,SE,4.6,-,0.06,,Overcast,130,2013-01-05 23:56:00
3:16 PM,37.4,33.8,87,29.69,6.0,Calm,Calm,-,N/A,,Overcast,0,2013-01-06 00:16:00
3:36 PM,37.4,33.8,87,29.69,8.0,ESE,3.5,-,0.01,,Overcast,110,2013-01-06 00:36:00
3:56 PM,37.4,33.8,87,29.70,9.0,ESE,3.5,-,0.02,,Overcast,120,2013-01-06 00:56:00
4:16 PM,37.4,33.8,87,29.70,10.0,East,5.8,-,N/A,,Overcast,100,2013-01-06 01:16:00
4:36 PM,37.4,33.8,87,29.70,10.0,ESE,6.9,-,N/A,,Overcast,120,2013-01-06 01:36:00
4:56 PM,37.4,33.8,87,29.71,10.0,ESE,8.1,-,N/A,,Overcast,120,2013-01-06 01:56:00
5:16 PM,37.4,33.8,87,29.71,10.0,ESE,6.9,-,N/A,,Overcast,110,2013-01-06 02:16:00
5:36 PM,37.4,33.8,87,29.71,10.0,ESE,9.2,-,N/A,,Overcast,120,2013-01-06 02:36:00
5:56 PM,37.4,33.8,87,29.71,10.0,SE,12.7,-,N/A,,Overcast,130,2013-01-06 02:56:00
6:16 PM,37.4,35.6,93,29.71,10.0,SE,10.4,-,N/A,,Overcast,130,2013-01-06 03:16:00
6:36 PM,37.4,33.8,87,29.72,10.0,ESE,10.4,-,N/A,,Mostly Cloudy,120,2013-01-06 03:36:00
6:56 PM,37.4,33.8,87,29.72,10.0,ESE,8.1,-,N/A,,Overcast,120,2013-01-06 03:56:00
7:16 PM,37.4,33.8,87,29.72,10.0,ESE,6.9,-,N/A,,Overcast,110,2013-01-06 04:16:00
7:36 PM,37.4,33.8,87,29.72,10.0,ESE,6.9,-,N/A,,Overcast,120,2013-01-06 04:36:00
7:56 PM,37.4,33.8,87,29.72,10.0,East,5.8,-,N/A,,Overcast,90,2013-01-06 04:56:00
8:16 PM,37.4,33.8,87,29.71,10.0,East,8.1,-,N/A,,Overcast,100,2013-01-06 05:16:00
8:36 PM,37.4,33.8,87,29.72,10.0,East,8.1,-,N/A,,Overcast,100,2013-01-06 05:36:00
8:56 PM,37.4,33.8,87,29.72,10.0,East,6.9,-,N/A,,Mostly Cloudy,100,2013-01-06 05:56:00
9:16 PM,37.4,33.8,87,29.72,10.0,East,5.8,-,N/A,,Overcast,80,2013-01-06 06:16:00
9:36 PM,37.4,33.8,87,29.72,10.0,East,5.8,-,N/A,,Overcast,80,2013-01-06 06:36:00
9:56 PM,35.6,33.8,93,29.72,10.0,East,6.9,-,N/A,,Overcast,80,2013-01-06 06:56:00
10:16 PM,35.6,32.0,87,29.73,10.0,East,5.8,-,N/A,,Overcast,80,2013-01-06 07:16:00
10:36 PM,35.6,30.2,81,29.73,10.0,East,4.6,-,N/A,,Overcast,80,2013-01-06 07:36:00
10:56 PM,35.6,30.2,81,29.73,10.0,East,5.8,-,N/A,,Overcast,80,2013-01-06 07:56:00
11:16 PM,33.8,30.2,87,29.73,10.0,East,6.9,-,N/A,,Overcast,80,2013-01-06 08:16:00
11:36 PM,35.6,32.0,87,29.74,10.0,Calm,Calm,-,N/A,,Overcast,0,2013-01-06 08:36:00
11:56 PM,33.8,30.2,87,29.73,10.0,East,3.5,-,N/A,,Mostly Cloudy,80,2013-01-06 08:56:00